This demonstration page uses our WeatherBlox Daily Observations layout. Learn more.

Left ArrowRight Arrow

Hourly Observations for November 18, 2020

Temp ( °F °C ) Dew Point ( °F °C ) Humidity (%) Winds ( mph kmh ) Pressure ( in mb ) Visibility ( mi km ) Precip ( " mm )
12:56 am 00:56 Clear 46 7.8 28 -2.2 50 50 S 15 24 30.04 1017 10 16 0.00 0.00
1:56 am 01:56 Clear 45 7.2 29 -1.7 54 54 S 15 24 30.01 1016 10 16 0.00 0.00
2:56 am 02:56 Clear 40 4.4 28 -2.2 63 63 S 12 19 30.00 1016 10 16 0.00 0.00
3:56 am 03:56 Clear 38 3.3 28 -2.2 68 68 S 8 13 29.98 1015 10 16 0.00 0.00
4:56 am 04:56 Clear 38 3.3 28 -2.2 68 68 S 6 9 29.97 1015 10 16 0.00 0.00
5:56 am 05:56 Clear 37 2.8 28 -2.2 70 70 S 5 7 29.97 1015 10 16 0.00 0.00
6:56 am 06:56 Clear 39 3.9 29 -1.7 67 67 S 12 19 29.94 1014 10 16 0.00 0.00
7:56 am 07:56 Sunny 39 3.9 29 -1.7 67 67 S 10 17 29.94 1014 10 16 0.00 0.00
8:56 am 08:56 Sunny 45 7.2 31 -0.6 58 58 SSW 13 20 29.93 1014 10 16 0.00 0.00
9:56 am 09:56 Sunny 50 10 32 0 50 50 SSW 16 26 29.91 1013 10 16 0.00 0.00
10:56 am 10:56 Sunny 53 11.7 31 -0.6 43 43 SSW 15 24 29.91 1013 10 16 0.00 0.00
11:56 am 11:56 Sunny 56 13.3 31 -0.6 39 39 SSW 13 20 29.89 1012 10 16 0.00 0.00
12:56 pm 12:56 Sunny 61 16.1 30 -1.1 31 31 SSW 16 26 29.85 1011 10 16 0.00 0.00
1:56 pm 13:56 Sunny 64 17.8 31 -0.6 29 29 SSW 16 26 29.83 1010 10 16 0.00 0.00
2:56 pm 14:56 Sunny 62 16.7 30 -1.1 30 30 SSW 15 24 29.84 1010 10 16 0.00 0.00
3:56 pm 15:56 Sunny 65 18.3 31 -0.6 28 28 SSW 13 20 29.83 1010 10 16 0.00 0.00
4:56 pm 16:56 Sunny 60 15.6 32 0 35 35 SSW 8 13 29.83 1010 10 16 0.00 0.00
5:56 pm 17:56 Clear 54 12.2 32 0 43 43 S 7 11 29.83 1010 10 16 0.00 0.00
6:56 pm 18:56 Clear 54 12.2 39 3.9 57 57 S 13 20 29.81 1010 10 16 0.00 0.00
7:56 pm 19:56 Clear 59 15 42 5.6 54 54 S 12 19 29.80 1009 10 16 0.00 0.00
8:56 pm 20:56 Clear 58 14.4 39 3.9 50 50 S 16 26 29.77 1008 10 16 0.00 0.00
9:56 pm 21:56 Clear 56 13.3 38 3.3 51 51 SSW 14 22 29.78 1008 10 16 0.00 0.00
10:56 pm 22:56 Clear 55 12.8 38 3.3 53 53 S 12 19 29.75 1008 10 16 0.00 0.00
11:56 pm 23:56 Clear 54 12.2 38 3.3 55 55 SSW 15 24 29.74 1007 10 16 0.00 0.00

Powered by AerisWeather